Year,Month,Day,Hour,Minute,Value (Times are PST for barometer in hPa)
2009,05,05,00,00,987.88
2009,05,05,00,06,987.88
2009,05,05,00,07,987.88
2009,05,05,00,08,987.88
2009,05,05,00,09,987.88
2009,05,05,00,10,987.88
2009,05,05,00,11,987.88
2009,05,05,00,12,987.88
2009,05,05,00,13,987.88
2009,05,05,00,14,987.88
2009,05,05,00,15,987.74
2009,05,05,00,16,987.74
2009,05,05,00,17,987.74
2009,05,05,00,18,987.74
2009,05,05,00,19,987.74
2009,05,05,00,20,987.74
2009,05,05,00,21,987.74
2009,05,05,00,22,987.74
2009,05,05,00,23,987.74
2009,05,05,00,24,987.74
2009,05,05,00,25,987.74
2009,05,05,00,26,987.74
2009,05,05,00,27,987.74
2009,05,05,00,28,987.74
2009,05,05,00,29,987.74
2009,05,05,00,30,987.88
2009,05,05,00,31,987.88
2009,05,05,00,32,987.88
2009,05,05,00,33,987.88
2009,05,05,00,34,987.88
2009,05,05,00,35,987.88
2009,05,05,00,36,987.88
2009,05,05,00,37,987.88
2009,05,05,00,38,987.88
2009,05,05,00,39,987.88
2009,05,05,00,40,987.88
2009,05,05,00,41,987.88
2009,05,05,00,42,987.88
2009,05,05,00,43,987.88
2009,05,05,00,44,987.88
2009,05,05,00,45,987.91
2009,05,05,00,46,987.91
2009,05,05,00,47,987.91
2009,05,05,00,48,987.91
2009,05,05,00,49,987.91
2009,05,05,00,50,987.91
2009,05,05,00,51,987.91
2009,05,05,00,52,987.91
2009,05,05,00,53,987.91
2009,05,05,00,54,987.91
2009,05,05,00,55,987.91
2009,05,05,00,56,987.91
2009,05,05,00,57,987.91
2009,05,05,00,58,987.91
2009,05,05,00,59,987.91
2009,05,05,01,00,987.95
2009,05,05,01,01,987.95
2009,05,05,01,02,987.95
2009,05,05,01,03,987.95
2009,05,05,01,04,987.95
2009,05,05,01,05,987.95
2009,05,05,01,06,987.95
2009,05,05,01,07,987.95
2009,05,05,01,08,987.95
2009,05,05,01,09,987.95
2009,05,05,01,10,987.95
2009,05,05,01,11,987.95
2009,05,05,01,12,987.95
2009,05,05,01,13,987.95
2009,05,05,01,14,987.95
2009,05,05,01,15,987.98
2009,05,05,01,16,987.98
2009,05,05,01,17,987.98
2009,05,05,01,18,987.98
2009,05,05,01,19,987.98
2009,05,05,01,20,987.98
2009,05,05,01,21,987.98
2009,05,05,01,22,987.98
2009,05,05,01,23,987.98
2009,05,05,01,24,987.98
2009,05,05,01,25,987.98
2009,05,05,01,26,987.98
2009,05,05,01,27,987.98
2009,05,05,01,28,987.98
2009,05,05,01,29,987.98
2009,05,05,01,30,988.05
2009,05,05,01,31,988.05
2009,05,05,01,32,988.05
2009,05,05,01,33,988.05
2009,05,05,01,34,988.05
2009,05,05,01,35,988.05
2009,05,05,01,36,988.05
2009,05,05,01,37,988.05
2009,05,05,01,38,988.05
2009,05,05,01,39,988.05
2009,05,05,01,40,988.05
2009,05,05,01,41,988.05
2009,05,05,01,42,988.05
2009,05,05,01,43,988.05
2009,05,05,01,44,988.05
2009,05,05,01,45,988.05
2009,05,05,01,46,988.05
2009,05,05,01,47,988.05
2009,05,05,01,48,988.05
2009,05,05,01,49,988.05
2009,05,05,01,50,988.05
2009,05,05,01,51,988.05
2009,05,05,01,52,988.05
2009,05,05,01,53,988.05
2009,05,05,01,54,988.05
2009,05,05,01,55,988.05
2009,05,05,01,56,988.05
2009,05,05,01,57,988.05
2009,05,05,01,58,988.05
2009,05,05,01,59,988.05
2009,05,05,02,00,988.15
2009,05,05,02,01,988.15
2009,05,05,02,02,988.15
2009,05,05,02,03,988.15
2009,05,05,02,04,988.15
2009,05,05,02,05,988.15
2009,05,05,02,06,988.15
2009,05,05,02,07,988.15
2009,05,05,02,08,988.15
2009,05,05,02,09,988.15
2009,05,05,02,10,988.15
2009,05,05,02,11,988.15
2009,05,05,02,12,988.15
2009,05,05,02,13,988.15
2009,05,05,02,14,988.15
2009,05,05,02,15,988.42
2009,05,05,02,16,988.42
2009,05,05,02,17,988.42
2009,05,05,02,18,988.42
2009,05,05,02,19,988.42
2009,05,05,02,20,988.42
2009,05,05,02,21,988.42
2009,05,05,02,22,988.42
2009,05,05,02,23,988.42
2009,05,05,02,24,988.42
2009,05,05,02,25,988.42
2009,05,05,02,26,988.42
2009,05,05,02,27,988.42
2009,05,05,02,28,988.42
2009,05,05,02,29,988.42
2009,05,05,02,30,988.87
2009,05,05,02,31,988.89
2009,05,05,02,32,988.89
2009,05,05,02,33,988.89
2009,05,05,02,34,988.89
2009,05,05,02,35,988.89
2009,05,05,02,36,988.89
2009,05,05,02,37,988.89
2009,05,05,02,38,988.89
2009,05,05,02,39,988.89
2009,05,05,02,40,988.89
2009,05,05,02,41,988.89
2009,05,05,02,42,988.89
2009,05,05,02,43,988.89
2009,05,05,02,44,988.89
2009,05,05,02,45,988.62
2009,05,05,02,46,988.62
2009,05,05,02,47,988.62
2009,05,05,02,48,988.62
2009,05,05,02,49,988.62
2009,05,05,02,50,988.62
2009,05,05,02,51,988.62
2009,05,05,02,52,988.62
2009,05,05,02,53,988.62
2009,05,05,02,54,988.62
2009,05,05,02,55,988.62
2009,05,05,02,56,988.62
2009,05,05,02,57,988.62
2009,05,05,02,58,988.62
2009,05,05,02,59,988.62
2009,05,05,03,00,988.55
2009,05,05,03,01,988.55
2009,05,05,03,02,988.55
2009,05,05,03,03,988.55
2009,05,05,03,04,988.55
2009,05,05,03,05,988.55
2009,05,05,03,06,988.55
2009,05,05,03,07,988.55
2009,05,05,03,08,988.55
2009,05,05,03,09,988.55
2009,05,05,03,10,988.55
2009,05,05,03,11,988.55
2009,05,05,03,12,988.55
2009,05,05,03,13,988.55
2009,05,05,03,14,988.55
2009,05,05,03,15,988.49
2009,05,05,03,16,988.49
2009,05,05,03,17,988.49
2009,05,05,03,18,988.49
2009,05,05,03,19,988.49
2009,05,05,03,20,988.49
2009,05,05,03,21,988.49
2009,05,05,03,22,988.49
2009,05,05,03,23,988.49
2009,05,05,03,24,988.49
2009,05,05,03,25,988.49
2009,05,05,03,26,988.49
2009,05,05,03,27,988.49
2009,05,05,03,28,988.49
2009,05,05,03,29,988.49
2009,05,05,03,30,988.59
2009,05,05,03,31,988.59
2009,05,05,03,32,988.59
2009,05,05,03,33,988.59
2009,05,05,03,34,988.59
2009,05,05,03,35,988.59
2009,05,05,03,36,988.59
2009,05,05,03,37,988.59
2009,05,05,03,38,988.59
2009,05,05,03,39,988.59
2009,05,05,03,40,988.59
2009,05,05,03,41,988.59
2009,05,05,03,42,988.59
2009,05,05,03,43,988.59
2009,05,05,03,44,988.59
2009,05,05,03,45,988.93
2009,05,05,03,46,988.93
2009,05,05,03,47,988.93
2009,05,05,03,48,988.93
2009,05,05,03,49,988.93
2009,05,05,03,50,988.93
2009,05,05,03,51,988.93
2009,05,05,03,52,988.93
2009,05,05,03,53,988.93
2009,05,05,03,54,988.93
2009,05,05,03,55,988.93
2009,05,05,03,56,988.93
2009,05,05,03,57,988.93
2009,05,05,03,58,988.93
2009,05,05,03,59,988.93
2009,05,05,04,00,989.23
2009,05,05,04,01,989.23
2009,05,05,04,02,989.23
2009,05,05,04,03,989.23
2009,05,05,04,04,989.23
2009,05,05,04,05,989.23
2009,05,05,04,06,989.23
2009,05,05,04,07,989.23
2009,05,05,04,08,989.23
2009,05,05,04,09,989.23
2009,05,05,04,10,989.23
2009,05,05,04,11,989.23
2009,05,05,04,12,989.23
2009,05,05,04,13,989.23
2009,05,05,04,14,989.23
2009,05,05,04,15,989.55
2009,05,05,04,16,989.57
2009,05,05,04,17,989.57
2009,05,05,04,18,989.57
2009,05,05,04,19,989.57
2009,05,05,04,20,989.57
2009,05,05,04,21,989.57
2009,05,05,04,22,989.57
2009,05,05,04,23,989.57
2009,05,05,04,24,989.57
2009,05,05,04,25,989.57
2009,05,05,04,26,989.57
2009,05,05,04,27,989.57
2009,05,05,04,28,989.57
2009,05,05,04,29,989.57
2009,05,05,04,30,989.88
2009,05,05,04,31,989.91
2009,05,05,04,32,989.91
2009,05,05,04,33,989.91
2009,05,05,04,34,989.91
2009,05,05,04,35,989.91
2009,05,05,04,36,989.91
2009,05,05,04,37,989.91
2009,05,05,04,38,989.91
2009,05,05,04,39,989.91
2009,05,05,04,40,989.91
2009,05,05,04,41,989.91
2009,05,05,04,42,989.91
2009,05,05,04,43,989.91
2009,05,05,04,44,989.91
2009,05,05,04,45,990.42
2009,05,05,04,46,990.45
2009,05,05,04,47,990.45
2009,05,05,04,48,990.45
2009,05,05,04,49,990.45
2009,05,05,04,50,990.45
2009,05,05,04,51,990.45
2009,05,05,04,52,990.45
2009,05,05,04,53,990.45
2009,05,05,04,54,990.45
2009,05,05,04,55,990.45
2009,05,05,04,56,990.45
2009,05,05,04,57,990.45
2009,05,05,04,58,990.45
2009,05,05,04,59,990.45
2009,05,05,05,00,990.58
2009,05,05,05,01,990.59
2009,05,05,05,02,990.59
2009,05,05,05,03,990.59
2009,05,05,05,04,990.59
2009,05,05,05,05,990.59
2009,05,05,05,06,990.59
2009,05,05,05,07,990.59
2009,05,05,05,08,990.59
2009,05,05,05,09,990.59
2009,05,05,05,10,990.59
2009,05,05,05,11,990.59
2009,05,05,05,12,990.59
2009,05,05,05,13,990.59
2009,05,05,05,14,990.59
2009,05,05,05,15,991.06
2009,05,05,05,16,991.09
2009,05,05,05,17,991.09
2009,05,05,05,18,991.09
2009,05,05,05,19,991.09
2009,05,05,05,20,991.09
2009,05,05,05,21,991.09
2009,05,05,05,22,991.09
2009,05,05,05,23,991.09
2009,05,05,05,24,991.09
2009,05,05,05,25,991.09
2009,05,05,05,26,991.09
2009,05,05,05,27,991.09
2009,05,05,05,28,991.09
2009,05,05,05,29,991.09
2009,05,05,05,30,991.52
2009,05,05,05,31,991.57
2009,05,05,05,32,991.57
2009,05,05,05,33,991.57
2009,05,05,05,34,991.57
2009,05,05,05,35,991.57
2009,05,05,05,36,991.57
2009,05,05,05,37,991.57
2009,05,05,05,38,991.57
2009,05,05,05,39,991.57
2009,05,05,05,40,991.57
2009,05,05,05,41,991.57
2009,05,05,05,42,991.57
2009,05,05,05,43,991.57
2009,05,05,05,44,991.57
2009,05,05,05,45,991.66
2009,05,05,05,46,991.67
2009,05,05,05,47,991.67
2009,05,05,05,48,991.67
2009,05,05,05,49,991.67
2009,05,05,05,50,991.67
2009,05,05,05,51,991.67
2009,05,05,05,52,991.67
2009,05,05,05,53,991.67
2009,05,05,05,54,991.67
2009,05,05,05,55,991.67
2009,05,05,05,56,991.67
2009,05,05,05,57,991.67
2009,05,05,05,58,991.67
2009,05,05,05,59,991.67
2009,05,05,06,00,992.11
2009,05,05,06,01,992.14
2009,05,05,06,02,992.14
2009,05,05,06,03,992.14
2009,05,05,06,04,992.14
2009,05,05,06,05,992.14
2009,05,05,06,06,992.14
2009,05,05,06,07,992.14
2009,05,05,06,08,992.14
2009,05,05,06,09,992.14
2009,05,05,06,10,992.14
2009,05,05,06,11,992.14
2009,05,05,06,12,992.14
2009,05,05,06,13,992.14
2009,05,05,06,14,992.14
2009,05,05,06,15,992.59
2009,05,05,06,16,992.62
2009,05,05,06,17,992.62
2009,05,05,06,18,992.62
2009,05,05,06,19,992.62
2009,05,05,06,20,992.62
2009,05,05,06,21,992.62
2009,05,05,06,22,992.62
2009,05,05,06,23,992.62
2009,05,05,06,24,992.62
2009,05,05,06,25,992.62
2009,05,05,06,26,992.62
2009,05,05,06,27,992.62
2009,05,05,06,28,992.62
2009,05,05,06,29,992.62
2009,05,05,06,30,993.07
2009,05,05,06,31,993.09
2009,05,05,06,32,993.09
2009,05,05,06,33,993.09
2009,05,05,06,34,993.09
2009,05,05,06,35,993.09
2009,05,05,06,36,993.09
2009,05,05,06,37,993.09
2009,05,05,06,38,993.09
2009,05,05,06,39,993.09
2009,05,05,06,40,993.09
2009,05,05,06,41,993.09
2009,05,05,06,42,993.09
2009,05,05,06,43,993.09
2009,05,05,06,44,993.09
2009,05,05,06,45,993.46
2009,05,05,06,46,993.50
2009,05,05,06,47,993.50
2009,05,05,06,48,993.50
2009,05,05,06,49,993.50
2009,05,05,06,50,993.50
2009,05,05,06,51,993.50
2009,05,05,06,52,993.50
2009,05,05,06,53,993.50
2009,05,05,06,54,993.50
2009,05,05,06,55,993.50
2009,05,05,06,56,993.50
2009,05,05,06,57,993.50
2009,05,05,06,58,993.50
2009,05,05,06,59,993.50
2009,05,05,07,00,993.95
2009,05,05,07,01,993.97
2009,05,05,07,02,993.97
2009,05,05,07,03,993.97
2009,05,05,07,04,993.97
2009,05,05,07,05,993.97
2009,05,05,07,06,993.97
2009,05,05,07,07,993.97
2009,05,05,07,08,993.97
2009,05,05,07,09,993.97
2009,05,05,07,10,993.97
2009,05,05,07,11,993.97
2009,05,05,07,12,993.97
2009,05,05,07,13,993.97
2009,05,05,07,14,993.97
2009,05,05,07,15,994.29
2009,05,05,07,16,994.31
2009,05,05,07,17,994.31
2009,05,05,07,18,994.31
2009,05,05,07,19,994.31
2009,05,05,07,20,994.31
2009,05,05,07,21,994.31
2009,05,05,07,22,994.31
2009,05,05,07,23,994.31
2009,05,05,07,24,994.31
2009,05,05,07,25,994.31
2009,05,05,07,26,994.31
2009,05,05,07,27,994.31
2009,05,05,07,28,994.31
2009,05,05,07,29,994.31
2009,05,05,07,30,994.91
2009,05,05,07,31,995.02
2009,05,05,07,32,995.02
2009,05,05,07,33,995.02
2009,05,05,07,34,995.02
2009,05,05,07,35,995.02
2009,05,05,07,36,995.02
2009,05,05,07,37,995.02
2009,05,05,07,38,995.02
2009,05,05,07,39,995.02
2009,05,05,07,40,995.02
2009,05,05,07,41,995.02
2009,05,05,07,42,995.02
2009,05,05,07,43,995.02
2009,05,05,07,44,995.02
2009,05,05,07,45,995.50
2009,05,05,07,46,995.56
2009,05,05,07,47,995.56
2009,05,05,07,48,995.56
2009,05,05,07,49,995.56
2009,05,05,07,50,995.56
2009,05,05,07,51,995.56
2009,05,05,07,52,995.56
2009,05,05,07,53,995.56
2009,05,05,07,54,995.56
2009,05,05,07,55,995.56
2009,05,05,07,56,995.56
2009,05,05,07,57,995.56
2009,05,05,07,58,995.56
2009,05,05,07,59,995.56
2009,05,05,08,00,995.93
2009,05,05,08,01,995.97
2009,05,05,08,02,995.97
2009,05,05,08,03,995.97
2009,05,05,08,04,995.97
2009,05,05,08,05,995.97
2009,05,05,08,06,995.97
2009,05,05,08,07,995.97
2009,05,05,08,08,995.97
2009,05,05,08,09,995.97
2009,05,05,08,10,995.97
2009,05,05,08,11,995.97
2009,05,05,08,12,995.97
2009,05,05,08,13,995.97
2009,05,05,08,14,995.97
2009,05,05,08,15,996.52
2009,05,05,08,16,996.58
2009,05,05,08,17,996.58
2009,05,05,08,18,996.58
2009,05,05,08,19,996.58
2009,05,05,08,20,996.58
2009,05,05,08,21,996.58
2009,05,05,08,22,996.58
2009,05,05,08,23,996.58
2009,05,05,08,24,996.58
2009,05,05,08,25,996.58
2009,05,05,08,26,996.58
2009,05,05,08,27,996.58
2009,05,05,08,28,996.58
2009,05,05,08,29,996.58
2009,05,05,08,30,996.86
2009,05,05,08,31,996.89
2009,05,05,08,32,996.89
2009,05,05,08,33,996.89
2009,05,05,08,34,996.89
2009,05,05,08,35,996.89
2009,05,05,08,36,996.89
2009,05,05,08,37,996.89
2009,05,05,08,38,996.89
2009,05,05,08,39,996.89
2009,05,05,08,40,996.89
2009,05,05,08,41,996.89
2009,05,05,08,42,996.89
2009,05,05,08,43,996.89
2009,05,05,08,44,996.89
2009,05,05,08,45,997.34
2009,05,05,08,46,997.39
2009,05,05,08,47,997.39
2009,05,05,08,48,997.39
2009,05,05,08,49,997.39
2009,05,05,08,50,997.39
2009,05,05,08,51,997.39
2009,05,05,08,52,997.39
2009,05,05,08,53,997.39
2009,05,05,08,54,997.39
2009,05,05,08,55,997.39
2009,05,05,08,56,997.39
2009,05,05,08,57,997.39
2009,05,05,08,58,997.39
2009,05,05,08,59,997.39
2009,05,05,09,00,997.74
2009,05,05,09,01,997.83
2009,05,05,09,02,997.83
2009,05,05,09,03,997.83
2009,05,05,09,04,997.83
2009,05,05,09,05,997.83
2009,05,05,09,06,997.83
2009,05,05,09,07,997.83
2009,05,05,09,08,997.83
2009,05,05,09,09,997.83
2009,05,05,09,10,997.83
2009,05,05,09,11,997.83
2009,05,05,09,12,997.83
2009,05,05,09,13,997.83
2009,05,05,09,14,997.83
2009,05,05,09,15,998.27
2009,05,05,09,16,998.38
2009,05,05,09,17,998.38
2009,05,05,09,18,998.38
2009,05,05,09,19,998.38
2009,05,05,09,20,998.38
2009,05,05,09,21,998.38
2009,05,05,09,22,998.38
2009,05,05,09,23,998.38
2009,05,05,09,24,998.38
2009,05,05,09,25,998.38
2009,05,05,09,26,998.38
2009,05,05,09,27,998.38
2009,05,05,09,28,998.38
2009,05,05,09,29,998.38
2009,05,05,09,30,998.73
2009,05,05,09,31,998.82
2009,05,05,09,32,998.82
2009,05,05,09,33,998.82
2009,05,05,09,34,998.82
2009,05,05,09,35,998.82
2009,05,05,09,36,998.82
2009,05,05,09,37,998.82
2009,05,05,09,38,998.82
2009,05,05,09,39,998.82
2009,05,05,09,40,998.82
2009,05,05,09,41,998.82
2009,05,05,09,42,998.82
2009,05,05,09,43,998.82
2009,05,05,09,44,998.82
2009,05,05,09,45,999.06
2009,05,05,09,46,999.12
2009,05,05,09,47,999.12
2009,05,05,09,48,999.12
2009,05,05,09,49,999.12
2009,05,05,09,50,999.12
2009,05,05,09,51,999.12
2009,05,05,09,52,999.12
2009,05,05,09,53,999.12
2009,05,05,09,54,999.12
2009,05,05,09,55,999.12
2009,05,05,09,56,999.12
2009,05,05,09,57,999.12
2009,05,05,09,58,999.12
2009,05,05,09,59,999.12
2009,05,05,10,00,999.31
2009,05,05,10,01,999.36
2009,05,05,10,02,999.36
2009,05,05,10,03,999.36
2009,05,05,10,04,999.36
2009,05,05,10,05,999.36
2009,05,05,10,06,999.36
2009,05,05,10,07,999.36
2009,05,05,10,08,999.36
2009,05,05,10,09,999.36
2009,05,05,10,10,999.36
2009,05,05,10,11,999.36
2009,05,05,10,12,999.36
2009,05,05,10,13,999.36
2009,05,05,10,14,999.36
2009,05,05,10,15,999.76
2009,05,05,10,16,999.83
2009,05,05,10,17,999.83
2009,05,05,10,18,999.83
2009,05,05,10,19,999.83
2009,05,05,10,20,999.83
2009,05,05,10,21,999.83
2009,05,05,10,22,999.83
2009,05,05,10,23,999.83
2009,05,05,10,24,999.83
2009,05,05,10,25,999.83
2009,05,05,10,26,999.83
2009,05,05,10,27,999.83
2009,05,05,10,28,999.83
2009,05,05,10,29,999.83
2009,05,05,10,30,1000.03
2009,05,05,10,31,1000.07
2009,05,05,10,32,1000.07
2009,05,05,10,33,1000.07
2009,05,05,10,34,1000.07
2009,05,05,10,35,1000.07
2009,05,05,10,36,1000.07
2009,05,05,10,37,1000.07
2009,05,05,10,38,1000.07
2009,05,05,10,39,1000.07
2009,05,05,10,40,1000.07
2009,05,05,10,41,1000.07
2009,05,05,10,42,1000.07
2009,05,05,10,43,1000.07
2009,05,05,10,44,1000.07
2009,05,05,10,45,1000.30
2009,05,05,10,46,1000.34
2009,05,05,10,47,1000.34
2009,05,05,10,48,1000.34
2009,05,05,10,49,1000.34
2009,05,05,10,50,1000.34
2009,05,05,10,51,1000.34
2009,05,05,10,52,1000.34
2009,05,05,10,53,1000.34
2009,05,05,10,54,1000.34
2009,05,05,10,55,1000.34
2009,05,05,10,56,1000.34
2009,05,05,10,57,1000.34
2009,05,05,10,58,1000.34
2009,05,05,10,59,1000.34
2009,05,05,11,00,1000.77
2009,05,05,11,01,1000.85
2009,05,05,11,02,1000.85
2009,05,05,11,03,1000.85
2009,05,05,11,04,1000.85
2009,05,05,11,05,1000.85
2009,05,05,11,06,1000.85
2009,05,05,11,07,1000.85
2009,05,05,11,08,1000.85
2009,05,05,11,09,1000.85
2009,05,05,11,10,1000.85
2009,05,05,11,11,1000.85
2009,05,05,11,12,1000.85
2009,05,05,11,13,1000.85
2009,05,05,11,14,1000.85
2009,05,05,11,15,1001.13
2009,05,05,11,16,1001.19
2009,05,05,11,17,1001.19
2009,05,05,11,18,1001.19
2009,05,05,11,19,1001.19
2009,05,05,11,20,1001.19
2009,05,05,11,21,1001.19
2009,05,05,11,22,1001.19
2009,05,05,11,23,1001.19
2009,05,05,11,24,1001.19
2009,05,05,11,25,1001.19
2009,05,05,11,26,1001.19
2009,05,05,11,27,1001.19
2009,05,05,11,28,1001.19
2009,05,05,11,29,1001.19
2009,05,05,11,30,1001.36
2009,05,05,11,31,1001.42
2009,05,05,11,32,1001.42
2009,05,05,11,33,1001.42
2009,05,05,11,34,1001.42
2009,05,05,11,35,1001.42
2009,05,05,11,36,1001.42
2009,05,05,11,37,1001.42
2009,05,05,11,38,1001.42
2009,05,05,11,39,1001.42
2009,05,05,11,40,1001.42
2009,05,05,11,41,1001.42
2009,05,05,11,42,1001.42
2009,05,05,11,43,1001.42
2009,05,05,11,44,1001.42
2009,05,05,11,45,1001.82
2009,05,05,11,46,1001.90
2009,05,05,11,47,1001.90
2009,05,05,11,48,1001.90
2009,05,05,11,49,1001.90
2009,05,05,11,50,1001.90
2009,05,05,11,51,1001.90
2009,05,05,11,52,1001.90
2009,05,05,11,53,1001.90
2009,05,05,11,54,1001.90
2009,05,05,11,55,1001.90
2009,05,05,11,56,1001.90
2009,05,05,11,57,1001.90
2009,05,05,11,58,1001.90
2009,05,05,11,59,1001.90
2009,05,05,12,00,1002.35
2009,05,05,12,01,1002.44
2009,05,05,12,02,1002.44
2009,05,05,12,03,1002.44
2009,05,05,12,04,1002.44
2009,05,05,12,05,1002.44
2009,05,05,12,06,1002.44
2009,05,05,12,07,1002.44
2009,05,05,12,08,1002.44
2009,05,05,12,09,1002.44
2009,05,05,12,10,1002.44
2009,05,05,12,11,1002.44
2009,05,05,12,12,1002.44
2009,05,05,12,13,1002.44
2009,05,05,12,14,1002.44
2009,05,05,12,15,1002.68
2009,05,05,12,16,1002.74
2009,05,05,12,17,1002.74
2009,05,05,12,18,1002.74
2009,05,05,12,19,1002.74
2009,05,05,12,20,1002.74
2009,05,05,12,21,1002.74
2009,05,05,12,22,1002.74
2009,05,05,12,23,1002.74
2009,05,05,12,24,1002.74
2009,05,05,12,25,1002.74
2009,05,05,12,26,1002.74
2009,05,05,12,27,1002.74
2009,05,05,12,28,1002.74
2009,05,05,12,29,1002.74
2009,05,05,12,30,1002.92
2009,05,05,12,31,1002.98
2009,05,05,12,32,1002.98
2009,05,05,12,33,1002.98
2009,05,05,12,34,1002.98
2009,05,05,12,35,1002.98
2009,05,05,12,36,1002.98
2009,05,05,12,37,1002.98
2009,05,05,12,38,1002.98
2009,05,05,12,39,1002.98
2009,05,05,12,40,1002.98
2009,05,05,12,41,1002.98
2009,05,05,12,42,1002.98
2009,05,05,12,43,1002.98
2009,05,05,12,44,1002.98
2009,05,05,12,45,1003.27
2009,05,05,12,46,1003.32
2009,05,05,12,47,1003.32
2009,05,05,12,48,1003.32
2009,05,05,12,49,1003.32
2009,05,05,12,50,1003.32
2009,05,05,12,51,1003.32
2009,05,05,12,52,1003.32
2009,05,05,12,53,1003.32
2009,05,05,12,54,1003.32
2009,05,05,12,55,1003.32
2009,05,05,12,56,1003.32
2009,05,05,12,57,1003.32
2009,05,05,12,58,1003.32
2009,05,05,12,59,1003.32
2009,05,05,13,00,1003.45
2009,05,05,13,01,1003.49
2009,05,05,13,02,1003.49
2009,05,05,13,03,1003.49
2009,05,05,13,04,1003.49
2009,05,05,13,05,1003.49
2009,05,05,13,06,1003.49
2009,05,05,13,07,1003.49
2009,05,05,13,08,1003.49
2009,05,05,13,09,1003.49
2009,05,05,13,10,1003.49
2009,05,05,13,11,1003.49
2009,05,05,13,12,1003.49
2009,05,05,13,13,1003.49
2009,05,05,13,14,1003.49
2009,05,05,13,15,1003.78
2009,05,05,13,16,1003.86
2009,05,05,13,17,1003.86
2009,05,05,13,18,1003.86
2009,05,05,13,19,1003.86
2009,05,05,13,20,1003.86
2009,05,05,13,21,1003.86
2009,05,05,13,22,1003.86
2009,05,05,13,23,1003.86
2009,05,05,13,24,1003.86
2009,05,05,13,25,1003.86
2009,05,05,13,26,1003.86
2009,05,05,13,27,1003.86
2009,05,05,13,28,1003.86
2009,05,05,13,29,1003.86
2009,05,05,13,30,1003.97
2009,05,05,13,31,1004.00
2009,05,05,13,32,1004.00
2009,05,05,13,33,1004.00
2009,05,05,13,34,1004.00
2009,05,05,13,35,1004.00
2009,05,05,13,36,1004.00
2009,05,05,13,37,1004.00
2009,05,05,13,38,1004.00
2009,05,05,13,39,1004.00
2009,05,05,13,40,1004.00
2009,05,05,13,41,1004.00
2009,05,05,13,42,1004.00
2009,05,05,13,43,1004.00
2009,05,05,13,44,1004.00
2009,05,05,13,45,1004.18
2009,05,05,13,46,1004.23
2009,05,05,13,47,1004.23
2009,05,05,13,48,1004.23
2009,05,05,13,49,1004.23
2009,05,05,13,50,1004.23
2009,05,05,13,51,1004.23
2009,05,05,13,52,1004.23
2009,05,05,13,53,1004.23
2009,05,05,13,54,1004.23
2009,05,05,13,55,1004.23
2009,05,05,13,56,1004.23
2009,05,05,13,57,1004.23
2009,05,05,13,58,1004.23
2009,05,05,13,59,1004.23
2009,05,05,14,00,1004.41
2009,05,05,14,01,1004.47
2009,05,05,14,02,1004.47
2009,05,05,14,03,1004.47
2009,05,05,14,04,1004.47
2009,05,05,14,05,1004.47
2009,05,05,14,06,1004.47
2009,05,05,14,07,1004.47
2009,05,05,14,08,1004.47
2009,05,05,14,09,1004.47
2009,05,05,14,10,1004.47
2009,05,05,14,11,1004.47
2009,05,05,14,12,1004.47
2009,05,05,14,13,1004.47
2009,05,05,14,14,1004.47
2009,05,05,14,15,1004.55
2009,05,05,14,16,1004.57
2009,05,05,14,17,1004.57
2009,05,05,14,18,1004.57
2009,05,05,14,19,1004.57
2009,05,05,14,20,1004.57
2009,05,05,14,21,1004.57
2009,05,05,14,22,1004.57
2009,05,05,14,23,1004.57
2009,05,05,14,24,1004.57
2009,05,05,14,25,1004.57
2009,05,05,14,26,1004.57
2009,05,05,14,27,1004.57
2009,05,05,14,28,1004.57
2009,05,05,14,29,1004.57
2009,05,05,14,30,1004.91
2009,05,05,14,31,1005.01
2009,05,05,14,32,1005.01
2009,05,05,14,33,1005.01
2009,05,05,14,34,1005.01
2009,05,05,14,35,1005.01
2009,05,05,14,36,1005.01
2009,05,05,14,37,1005.01
2009,05,05,14,38,1005.01
2009,05,05,14,39,1005.01
2009,05,05,14,40,1005.01
2009,05,05,14,41,1005.01
2009,05,05,14,42,1005.01
2009,05,05,14,43,1005.01
2009,05,05,14,44,1005.01
2009,05,05,14,45,1005.25
2009,05,05,14,46,1005.35
2009,05,05,14,47,1005.35
2009,05,05,14,48,1005.35
2009,05,05,14,49,1005.35
2009,05,05,14,50,1005.35
2009,05,05,14,51,1005.35
2009,05,05,14,52,1005.35
2009,05,05,14,53,1005.35
2009,05,05,14,54,1005.35
2009,05,05,14,55,1005.35
2009,05,05,14,56,1005.35
2009,05,05,14,57,1005.35
2009,05,05,14,58,1005.35
2009,05,05,14,59,1005.35
2009,05,05,15,00,1005.47
2009,05,05,15,01,1005.52
2009,05,05,15,02,1005.52
2009,05,05,15,03,1005.52
2009,05,05,15,04,1005.52
2009,05,05,15,05,1005.52
2009,05,05,15,06,1005.52
2009,05,05,15,07,1005.52
2009,05,05,15,08,1005.52
2009,05,05,15,09,1005.52
2009,05,05,15,10,1005.52
2009,05,05,15,11,1005.52
2009,05,05,15,12,1005.52
2009,05,05,15,13,1005.52
2009,05,05,15,14,1005.52
2009,05,05,15,15,1005.67
2009,05,05,15,16,1005.72
2009,05,05,15,17,1005.72
2009,05,05,15,18,1005.72
2009,05,05,15,19,1005.72
2009,05,05,15,20,1005.72
2009,05,05,15,21,1005.72
2009,05,05,15,22,1005.72
2009,05,05,15,23,1005.72
2009,05,05,15,24,1005.72
2009,05,05,15,25,1005.72
2009,05,05,15,26,1005.72
2009,05,05,15,27,1005.72
2009,05,05,15,28,1005.72
2009,05,05,15,29,1005.72
2009,05,05,15,30,1005.96
2009,05,05,15,31,1006.03
2009,05,05,15,32,1006.03
2009,05,05,15,33,1006.03
2009,05,05,15,34,1006.03
2009,05,05,15,35,1006.03
2009,05,05,15,36,1006.03
2009,05,05,15,37,1006.03
2009,05,05,15,38,1006.03
2009,05,05,15,39,1006.03
2009,05,05,15,40,1006.03
2009,05,05,15,41,1006.03
2009,05,05,15,42,1006.03
2009,05,05,15,43,1006.03
2009,05,05,15,44,1006.03
2009,05,05,15,45,1006.10
2009,05,05,15,46,1006.13
2009,05,05,15,47,1006.13
2009,05,05,15,48,1006.13
2009,05,05,15,49,1006.13
2009,05,05,15,50,1006.13
2009,05,05,15,51,1006.13
2009,05,05,15,52,1006.13
2009,05,05,15,53,1006.13
2009,05,05,15,54,1006.13
2009,05,05,15,55,1006.13
2009,05,05,15,56,1006.13
2009,05,05,15,57,1006.13
2009,05,05,15,58,1006.13
2009,05,05,15,59,1006.13
2009,05,05,16,00,1006.08
2009,05,05,16,01,1006.06
2009,05,05,16,02,1006.06
2009,05,05,16,03,1006.06
2009,05,05,16,04,1006.06
2009,05,05,16,05,1006.06
2009,05,05,16,06,1006.06
2009,05,05,16,07,1006.06
2009,05,05,16,08,1006.06
2009,05,05,16,09,1006.06
2009,05,05,16,10,1006.06
2009,05,05,16,11,1006.06
2009,05,05,16,12,1006.06
2009,05,05,16,13,1006.06
2009,05,05,16,14,1006.06
2009,05,05,16,15,1006.21
2009,05,05,16,16,1006.27
2009,05,05,16,17,1006.27
2009,05,05,16,18,1006.27
2009,05,05,16,19,1006.27
2009,05,05,16,20,1006.27
2009,05,05,16,21,1006.27
2009,05,05,16,22,1006.27
2009,05,05,16,23,1006.27
2009,05,05,16,24,1006.27
2009,05,05,16,25,1006.27
2009,05,05,16,26,1006.27